Terminal Aerodrome Forecast
Issued by NWS

Home | Current Version | Previous Version | Text Only | Print | Product List | Glossary On
Versions: 1 2 3 4 5 6 7 8 9 10 11 12 13 14 15 16 17 18 19 20 21 22 23 24 25 26 27 28 29 30 31 32 33 34 35 36 37 38 39 40 41 42 43 44 45 46 47 48 49 50
000
FTUS46 KLOX 251151
TAFLAX
TAF
KLAX 251151Z 2512/2618 VRB03KT P6SM FEW011
     FM251900 26010KT P6SM SKC
     FM252200 26014G20KT P6SM SKC
     FM260300 26008KT P6SM SCT200
     FM261100 VRB03KT 6SM BR BKN008
     FM261500 VRB03KT 6SM BR BKN011
     FM261700 24006KT P6SM SCT015 BKN200=

USA.gov is the U.S. government's official web portal to all federal, state and local government web resources and services.